This is the latest recevied weather packets stored in our database for station/object M0TJX-1. If no packets are shown the sender has not sent any weather packets the latest 10 day(s).
| Time | Temp. | Humidity | Pressure | Rain* | Wind** | Luminosity | Snow |
|---|---|---|---|---|---|---|---|
| 1788102618 | 20° C | 69% | 1005.9 hPa | 0 mm | - | - | - |
| 1788101718 | 20.56° C | 69% | 1006.3 hPa | 0 mm | - | - | - |
| 1788100818 | 20.56° C | 70% | 1006.3 hPa | 0 mm | - | - | - |
| 1788099918 | 20.56° C | 70% | 1006.6 hPa | 0 mm | - | - | - |
| 1788099018 | 21.11° C | 69% | 1006.8 hPa | 0 mm | - | - | - |
| 1788098118 | 21.67° C | 67% | 1006.8 hPa | 0 mm | - | - | - |
| 1788097218 | 22.22° C | 65% | 1006.8 hPa | 0 mm | - | - | - |
| 1788096318 | 21.11° C | 69% | 1007 hPa | 0 mm | - | - | - |
| 1788095418 | 20.56° C | 72% | 1007.2 hPa | 0 mm | - | - | - |
| 1788094518 | 20° C | 73% | 1007.5 hPa | 0 mm | - | - | - |
| 1788093618 | 20.56° C | 73% | 1007.5 hPa | 0 mm | - | - | - |
| 1788092718 | 21.11° C | 71% | 1007.6 hPa | 0 mm | - | - | - |
| 1788091818 | 21.11° C | 71% | 1007.6 hPa | 0.51 mm | - | - | - |
| 1788090918 | 20.56° C | 75% | 1007.6 hPa | 0.51 mm | - | - | - |
| 1788090018 | 20° C | 77% | 1007.7 hPa | 0.51 mm | - | - | - |
| 1788089118 | 19.44° C | 82% | 1007.7 hPa | 0.51 mm | - | - | - |
| 1788088218 | 20.56° C | 79% | 1008.2 hPa | 0 mm | - | - | - |
| 1788087318 | 20.56° C | 75% | 1008.3 hPa | 0 mm | - | - | - |
| 1788086418 | 20° C | 75% | 1008.4 hPa | 0 mm | - | - | - |
| 1788085518 | 20° C | 75% | 1008.6 hPa | 0 mm | - | - | - |
| 1788084618 | 20° C | 78% | 1008.9 hPa | 0 mm | - | - | - |
| 1788083718 | 20° C | 75% | 1008.8 hPa | 0 mm | - | - | - |
| 1788082818 | 20.56° C | 74% | 1008.9 hPa | 0 mm | - | - | - |
| 1788081918 | 20° C | 78% | 1008.8 hPa | 0 mm | - | - | - |
| 1788081018 | 19.44° C | 81% | 1009 hPa | 0 mm | - | - | - |
* Rain latest hour (hover to see other rain measurements)
** Current wind speed in m/s (hover to see current wind gust speed)